Time,TemperatureF,DewpointF,PressureIn,WindDirection,WindDirectionDegrees,WindSpeedMPH,WindSpeedGustMPH,Humidity,HourlyPrecipIn,Conditions,Clouds,dailyrainin,SoftwareType,DateUTC
2013-01-10 00:03:00,29.0,23.0,-100.00,ESE,115,2.0,2.0,80,0.00,,,0.00,,2013-01-10 00:03:00,
2013-01-10 00:12:00,27.0,25.0,-100.00,SE,130,1.0,3.0,88,0.00,,,0.00,,2013-01-10 00:12:00,
2013-01-10 00:22:00,28.0,25.0,-100.00,SE,135,5.0,6.0,87,0.00,,,0.00,,2013-01-10 00:22:00,
2013-01-10 00:32:00,27.0,25.0,-100.00,ESE,115,3.0,6.0,89,0.00,,,0.00,,2013-01-10 00:32:00,
2013-01-10 00:42:00,27.0,25.0,-100.00,ESE,115,4.0,5.0,89,0.00,,,0.00,,2013-01-10 00:42:00,
2013-01-10 00:52:00,26.0,23.0,-100.00,ESE,110,4.0,7.0,88,0.00,,,0.00,,2013-01-10 00:52:00,
2013-01-10 01:02:00,25.0,23.0,-100.00,SE,130,2.0,4.0,89,0.00,,,0.00,,2013-01-10 01:02:00,
2013-01-10 01:12:00,26.0,23.0,-100.00,East,100,3.0,4.0,90,0.00,,,0.00,,2013-01-10 01:12:00,
2013-01-10 01:22:00,25.0,23.0,-100.00,East,100,2.0,6.0,91,0.00,,,0.00,,2013-01-10 01:22:00,
2013-01-10 01:32:00,26.0,25.0,-100.00,ESE,105,6.0,7.0,92,0.00,,,0.00,,2013-01-10 01:32:00,
2013-01-10 01:42:00,26.0,23.0,-100.00,ESE,115,4.0,5.0,91,0.00,,,0.00,,2013-01-10 01:42:00,
2013-01-10 01:52:00,26.0,23.0,-100.00,SE,125,3.0,5.0,88,0.00,,,0.00,,2013-01-10 01:52:00,
2013-01-10 02:03:00,24.0,21.0,-100.00,ENE,65,1.0,4.0,90,0.00,,,0.00,,2013-01-10 02:03:00,
2013-01-10 02:12:00,24.0,21.0,-100.00,NE,50,2.0,2.0,90,0.00,,,0.00,,2013-01-10 02:12:00,
2013-01-10 02:22:00,24.0,23.0,-100.00,SE,135,1.0,3.0,95,0.00,,,0.00,,2013-01-10 02:22:00,
2013-01-10 02:32:00,24.0,23.0,-100.00,ESE,120,2.0,3.0,93,0.00,,,0.00,,2013-01-10 02:32:00,
2013-01-10 02:42:00,24.0,23.0,-100.00,ESE,120,2.0,3.0,93,0.00,,,0.00,,2013-01-10 02:42:00,
2013-01-10 02:52:00,24.0,23.0,-100.00,ESE,120,2.0,3.0,93,0.00,,,0.00,,2013-01-10 02:52:00,
2013-01-10 03:02:00,20.0,19.0,-100.00,ESE,105,2.0,2.0,95,0.00,,,0.00,,2013-01-10 03:02:00,
2013-01-10 03:12:00,23.0,21.0,-100.00,ESE,110,4.0,6.0,97,0.00,,,0.00,,2013-01-10 03:12:00,
2013-01-10 03:22:00,20.0,19.0,-100.00,North,10,0.0,1.0,97,0.00,,,0.00,,2013-01-10 03:22:00,
2013-01-10 03:32:00,20.0,19.0,-100.00,NE,50,2.0,4.0,97,0.00,,,0.00,,2013-01-10 03:32:00,
2013-01-10 03:42:00,22.0,21.0,-100.00,ESE,115,6.0,7.0,99,0.00,,,0.00,,2013-01-10 03:42:00,
2013-01-10 03:52:00,24.0,23.0,-100.00,East,95,5.0,7.0,96,0.00,,,0.00,,2013-01-10 03:52:00,
2013-01-10 04:02:00,26.0,25.0,-100.00,East,100,6.0,9.0,95,0.00,,,0.00,,2013-01-10 04:02:00,
2013-01-10 04:12:00,26.0,25.0,-100.00,East,95,8.0,10.0,94,0.00,,,0.00,,2013-01-10 04:12:00,
2013-01-10 04:22:00,25.0,23.0,-100.00,ESE,110,6.0,7.0,93,0.00,,,0.00,,2013-01-10 04:22:00,
2013-01-10 04:32:00,28.0,27.0,-100.00,East,100,4.0,8.0,93,0.00,,,0.00,,2013-01-10 04:32:00,
2013-01-10 04:42:00,30.0,28.0,-100.00,ESE,110,8.0,12.0,92,0.00,,,0.00,,2013-01-10 04:42:00,
2013-01-10 04:52:00,29.0,27.0,-100.00,East,100,6.0,12.0,89,0.00,,,0.00,,2013-01-10 04:52:00,
2013-01-10 05:03:00,29.0,27.0,-100.00,East,100,5.0,11.0,89,0.00,,,0.00,,2013-01-10 05:03:00,
2013-01-10 05:12:00,29.0,27.0,-100.00,ESE,110,7.0,9.0,90,0.00,,,0.00,,2013-01-10 05:12:00,
2013-01-10 05:22:00,30.0,28.0,-100.00,ESE,110,9.0,13.0,91,0.00,,,0.00,,2013-01-10 05:22:00,
2013-01-10 05:33:00,30.0,28.0,-100.00,ESE,110,8.0,12.0,90,0.00,,,0.00,,2013-01-10 05:33:00,
2013-01-10 05:42:00,31.0,28.0,-100.00,ESE,110,7.0,12.0,89,0.00,,,0.00,,2013-01-10 05:42:00,
2013-01-10 05:52:00,31.0,28.0,-100.00,ESE,105,11.0,16.0,89,0.00,,,0.00,,2013-01-10 05:52:00,
2013-01-10 06:02:00,32.0,28.0,-100.00,East,100,12.0,18.0,88,0.00,,,0.00,,2013-01-10 06:02:00,
2013-01-10 06:11:00,32.0,28.0,-100.00,East,100,11.0,17.0,86,0.00,,,0.00,,2013-01-10 06:11:00,
2013-01-10 06:22:00,33.0,28.0,-100.00,ESE,105,14.0,21.0,84,0.00,,,0.00,,2013-01-10 06:22:00,
2013-01-10 06:32:00,32.0,28.0,-100.00,ESE,105,10.0,17.0,83,0.00,,,0.00,,2013-01-10 06:32:00,
2013-01-10 06:42:00,33.0,27.0,-100.00,ESE,115,14.0,19.0,80,0.00,,,0.00,,2013-01-10 06:42:00,
2013-01-10 06:52:00,32.0,27.0,-100.00,ESE,110,12.0,18.0,79,0.00,,,0.00,,2013-01-10 06:52:00,
2013-01-10 07:02:00,33.0,27.0,-100.00,ESE,110,13.0,19.0,77,0.00,,,0.00,,2013-01-10 07:02:00,
2013-01-10 07:12:00,33.0,27.0,-100.00,ESE,105,12.0,19.0,77,0.00,,,0.00,,2013-01-10 07:12:00,
2013-01-10 07:22:00,33.0,27.0,-100.00,East,95,11.0,17.0,75,0.00,,,0.00,,2013-01-10 07:22:00,
2013-01-10 07:32:00,33.0,25.0,-100.00,East,100,15.0,19.0,73,0.00,,,0.00,,2013-01-10 07:32:00,
2013-01-10 07:42:00,33.0,25.0,-100.00,East,95,14.0,19.0,73,0.00,,,0.00,,2013-01-10 07:42:00,
2013-01-10 07:52:00,33.0,25.0,-100.00,East,95,11.0,16.0,73,0.00,,,0.00,,2013-01-10 07:52:00,
2013-01-10 08:02:00,32.0,25.0,-100.00,East,100,9.0,13.0,74,0.00,,,0.00,,2013-01-10 08:02:00,
2013-01-10 08:11:00,32.0,25.0,-100.00,East,95,7.0,11.0,74,0.00,,,0.00,,2013-01-10 08:11:00,
2013-01-10 08:22:00,31.0,25.0,-100.00,East,100,7.0,12.0,75,0.00,,,0.00,,2013-01-10 08:22:00,
2013-01-10 08:32:00,32.0,25.0,-100.00,East,95,9.0,13.0,75,0.00,,,0.00,,2013-01-10 08:32:00,
2013-01-10 08:42:00,32.0,25.0,-100.00,East,100,7.0,12.0,75,0.00,,,0.00,,2013-01-10 08:42:00,
2013-01-10 08:52:00,33.0,27.0,-100.00,ESE,110,10.0,15.0,74,0.00,,,0.00,,2013-01-10 08:52:00,
2013-01-10 09:02:00,32.0,27.0,-100.00,ESE,105,8.0,14.0,76,0.00,,,0.00,,2013-01-10 09:02:00,
2013-01-10 09:12:00,31.0,25.0,-100.00,East,100,9.0,12.0,78,0.00,,,0.00,,2013-01-10 09:12:00,
2013-01-10 09:22:00,31.0,25.0,-100.00,ESE,105,11.0,14.0,78,0.00,,,0.00,,2013-01-10 09:22:00,
2013-01-10 09:32:00,31.0,25.0,-100.00,ESE,105,9.0,13.0,79,0.00,,,0.00,,2013-01-10 09:32:00,
2013-01-10 09:42:00,32.0,27.0,-100.00,ESE,105,12.0,16.0,77,0.00,,,0.00,,2013-01-10 09:42:00,
2013-01-10 09:52:00,32.0,27.0,-100.00,ESE,105,13.0,17.0,78,0.00,,,0.00,,2013-01-10 09:52:00,
2013-01-10 10:02:00,31.0,27.0,-100.00,ESE,110,11.0,15.0,79,0.00,,,0.00,,2013-01-10 10:02:00,
2013-01-10 10:12:00,32.0,25.0,-100.00,ESE,105,10.0,16.0,78,0.00,,,0.00,,2013-01-10 10:12:00,
2013-01-10 10:22:00,31.0,25.0,-100.00,ESE,110,9.0,14.0,80,0.00,,,0.00,,2013-01-10 10:22:00,
2013-01-10 10:32:00,30.0,25.0,-100.00,ESE,115,9.0,11.0,81,0.00,,,0.00,,2013-01-10 10:32:00,
2013-01-10 10:42:00,29.0,25.0,-100.00,ESE,115,9.0,13.0,83,0.00,,,0.00,,2013-01-10 10:42:00,
2013-01-10 10:52:00,29.0,25.0,-100.00,ESE,120,6.0,12.0,84,0.00,,,0.00,,2013-01-10 10:52:00,
2013-01-10 11:02:00,29.0,25.0,-100.00,ESE,105,7.0,9.0,83,0.00,,,0.00,,2013-01-10 11:02:00,
2013-01-10 11:12:00,29.0,25.0,-100.00,ESE,110,6.0,9.0,84,0.00,,,0.00,,2013-01-10 11:12:00,
2013-01-10 11:22:00,31.0,27.0,-100.00,East,95,9.0,11.0,81,0.00,,,0.00,,2013-01-10 11:22:00,
2013-01-10 11:32:00,31.0,25.0,-100.00,East,100,9.0,13.0,80,0.00,,,0.00,,2013-01-10 11:32:00,
2013-01-10 11:42:00,31.0,25.0,-100.00,East,100,7.0,12.0,80,0.00,,,0.00,,2013-01-10 11:42:00,
2013-01-10 11:52:00,31.0,25.0,-100.00,East,90,7.0,10.0,80,0.00,,,0.00,,2013-01-10 11:52:00,
2013-01-10 12:02:00,30.0,25.0,-100.00,East,90,7.0,9.0,79,0.00,,,0.00,,2013-01-10 12:02:00,
2013-01-10 12:12:00,29.0,23.0,-100.00,East,90,5.0,9.0,80,0.00,,,0.00,,2013-01-10 12:12:00,
2013-01-10 12:22:00,27.0,21.0,-100.00,NE,40,4.0,5.0,80,0.00,,,0.00,,2013-01-10 12:22:00,
2013-01-10 12:32:00,24.0,21.0,-100.00,NE,55,6.0,6.0,86,0.00,,,0.00,,2013-01-10 12:32:00,
2013-01-10 12:42:00,22.0,19.0,-100.00,ENE,60,6.0,7.0,89,0.00,,,0.00,,2013-01-10 12:42:00,
2013-01-10 12:52:00,23.0,21.0,-100.00,ENE,60,6.0,7.0,91,0.00,,,0.00,,2013-01-10 12:52:00,
2013-01-10 13:02:00,23.0,21.0,-100.00,ENE,60,4.0,6.0,92,0.00,,,0.00,,2013-01-10 13:02:00,
2013-01-10 13:12:00,23.0,21.0,-100.00,ENE,65,3.0,6.0,93,0.00,,,0.00,,2013-01-10 13:12:00,
2013-01-10 13:22:00,22.0,19.0,-100.00,NE,55,3.0,5.0,92,0.00,,,0.00,,2013-01-10 13:22:00,
2013-01-10 13:32:00,22.0,19.0,-100.00,NE,45,4.0,4.0,93,0.00,,,0.00,,2013-01-10 13:32:00,
2013-01-10 13:42:00,22.0,21.0,-100.00,ENE,65,6.0,6.0,95,0.00,,,0.00,,2013-01-10 13:42:00,
2013-01-10 13:52:00,24.0,23.0,-100.00,ENE,70,6.0,7.0,95,0.00,,,0.00,,2013-01-10 13:52:00,
2013-01-10 14:02:00,23.0,21.0,-100.00,ENE,70,6.0,7.0,93,0.00,,,0.00,,2013-01-10 14:02:00,
2013-01-10 14:12:00,23.0,21.0,-100.00,ENE,75,6.0,9.0,93,0.00,,,0.00,,2013-01-10 14:12:00,
2013-01-10 14:22:00,24.0,21.0,-100.00,East,80,6.0,7.0,93,0.00,,,0.00,,2013-01-10 14:22:00,
2013-01-10 14:32:00,24.0,21.0,-100.00,ENE,65,7.0,10.0,92,0.00,,,0.00,,2013-01-10 14:32:00,
2013-01-10 14:43:00,25.0,23.0,-100.00,ENE,65,7.0,9.0,92,0.00,,,0.00,,2013-01-10 14:43:00,
2013-01-10 14:53:00,26.0,23.0,-100.00,ENE,60,9.0,11.0,90,0.00,,,0.00,,2013-01-10 14:53:00,
2013-01-10 15:03:00,27.0,23.0,-100.00,ENE,60,8.0,11.0,89,0.00,,,0.00,,2013-01-10 15:03:00,
2013-01-10 15:12:00,27.0,25.0,-100.00,ENE,60,7.0,11.0,89,0.00,,,0.00,,2013-01-10 15:12:00,
2013-01-10 15:22:00,28.0,25.0,-100.00,ENE,70,9.0,12.0,87,0.00,,,0.00,,2013-01-10 15:22:00,
2013-01-10 15:32:00,29.0,25.0,-100.00,ENE,75,12.0,15.0,83,0.00,,,0.00,,2013-01-10 15:32:00,
2013-01-10 15:43:00,30.0,25.0,-100.00,ENE,70,11.0,17.0,81,0.00,,,0.00,,2013-01-10 15:43:00,
2013-01-10 15:53:00,31.0,25.0,-100.00,ENE,70,9.0,14.0,80,0.00,,,0.00,,2013-01-10 15:53:00,
2013-01-10 16:02:00,31.0,25.0,-100.00,ENE,70,9.0,16.0,78,0.00,,,0.00,,2013-01-10 16:02:00,
2013-01-10 16:12:00,32.0,25.0,-100.00,East,80,11.0,16.0,77,0.00,,,0.00,,2013-01-10 16:12:00,
2013-01-10 16:22:00,32.0,25.0,-100.00,ENE,70,11.0,14.0,75,0.00,,,0.00,,2013-01-10 16:22:00,
2013-01-10 16:33:00,33.0,25.0,-100.00,ENE,75,11.0,14.0,74,0.00,,,0.00,,2013-01-10 16:33:00,
2013-01-10 16:42:00,34.0,25.0,-100.00,ENE,75,12.0,16.0,71,0.00,,,0.00,,2013-01-10 16:42:00,
2013-01-10 16:52:00,34.0,27.0,-100.00,ENE,65,11.0,15.0,72,0.00,,,0.00,,2013-01-10 16:52:00,
2013-01-10 17:03:00,35.0,27.0,-100.00,ENE,65,11.0,16.0,70,0.00,,,0.00,,2013-01-10 17:03:00,
2013-01-10 17:12:00,35.0,27.0,-100.00,ENE,70,11.0,16.0,70,0.00,,,0.00,,2013-01-10 17:12:00,
2013-01-10 17:22:00,35.0,27.0,-100.00,ENE,65,11.0,17.0,68,0.00,,,0.00,,2013-01-10 17:22:00,
2013-01-10 17:33:00,36.0,27.0,-100.00,ENE,65,11.0,16.0,69,0.00,,,0.00,,2013-01-10 17:33:00,
2013-01-10 17:42:00,36.0,27.0,-100.00,NE,55,11.0,16.0,67,0.00,,,0.00,,2013-01-10 17:42:00,
2013-01-10 17:53:00,36.0,27.0,-100.00,ENE,60,11.0,13.0,69,0.00,,,0.00,,2013-01-10 17:53:00,
2013-01-10 18:03:00,36.0,27.0,-100.00,ENE,60,13.0,17.0,67,0.00,,,0.00,,2013-01-10 18:03:00,
2013-01-10 18:12:00,36.0,25.0,-100.00,ENE,60,14.0,18.0,64,0.00,,,0.00,,2013-01-10 18:12:00,
2013-01-10 18:23:00,36.0,25.0,-100.00,ENE,60,13.0,18.0,64,0.00,,,0.00,,2013-01-10 18:23:00,
2013-01-10 18:33:00,36.0,25.0,-100.00,ENE,65,14.0,18.0,65,0.00,,,0.00,,2013-01-10 18:33:00,
2013-01-10 18:43:00,36.0,27.0,-100.00,ENE,60,16.0,21.0,66,0.00,,,0.00,,2013-01-10 18:43:00,
2013-01-10 18:52:00,36.0,25.0,-100.00,ENE,65,17.0,20.0,63,0.00,,,0.00,,2013-01-10 18:52:00,
2013-01-10 19:03:00,36.0,25.0,-100.00,ENE,70,14.0,18.0,65,0.00,,,0.00,,2013-01-10 19:03:00,
2013-01-10 19:12:00,36.0,25.0,-100.00,ENE,70,14.0,18.0,65,0.00,,,0.00,,2013-01-10 19:12:00,
2013-01-10 19:23:00,36.0,27.0,-100.00,NE,55,14.0,20.0,67,0.00,,,0.00,,2013-01-10 19:23:00,
2013-01-10 19:33:00,36.0,27.0,-100.00,ENE,65,14.0,19.0,68,0.00,,,0.00,,2013-01-10 19:33:00,
2013-01-10 19:43:00,36.0,27.0,-100.00,ENE,65,13.0,17.0,66,0.00,,,0.00,,2013-01-10 19:43:00,
2013-01-10 19:53:00,36.0,25.0,-100.00,ENE,60,16.0,19.0,64,0.00,,,0.00,,2013-01-10 19:53:00,
2013-01-10 20:03:00,36.0,25.0,-100.00,ENE,65,16.0,20.0,63,0.00,,,0.00,,2013-01-10 20:03:00,
2013-01-10 20:12:00,36.0,25.0,-100.00,ENE,60,16.0,20.0,62,0.00,,,0.00,,2013-01-10 20:12:00,
2013-01-10 20:23:00,36.0,25.0,-100.00,ENE,60,15.0,21.0,62,0.00,,,0.00,,2013-01-10 20:23:00,
2013-01-10 20:33:00,36.0,25.0,-100.00,NE,55,14.0,19.0,62,0.00,,,0.00,,2013-01-10 20:33:00,
2013-01-10 20:42:00,37.0,23.0,-100.00,ENE,60,16.0,21.0,58,0.00,,,0.00,,2013-01-10 20:42:00,
2013-01-10 20:53:00,37.0,23.0,-100.00,NE,55,17.0,21.0,57,0.00,,,0.00,,2013-01-10 20:53:00,
2013-01-10 21:03:00,37.0,25.0,-100.00,NE,50,14.0,21.0,59,0.00,,,0.00,,2013-01-10 21:03:00,
2013-01-10 21:12:00,37.0,25.0,-100.00,NE,50,14.0,17.0,59,0.00,,,0.00,,2013-01-10 21:12:00,
2013-01-10 21:23:00,37.0,25.0,-100.00,NE,40,12.0,17.0,63,0.00,,,0.00,,2013-01-10 21:23:00,
2013-01-10 21:33:00,37.0,25.0,-100.00,NE,40,12.0,17.0,62,0.00,,,0.00,,2013-01-10 21:33:00,
2013-01-10 21:42:00,36.0,25.0,-100.00,NE,50,13.0,19.0,65,0.00,,,0.00,,2013-01-10 21:42:00,
2013-01-10 21:52:00,36.0,27.0,-100.00,NE,45,13.0,17.0,68,0.00,,,0.00,,2013-01-10 21:52:00,
2013-01-10 22:03:00,35.0,27.0,-100.00,NE,40,12.0,17.0,70,0.00,,,0.00,,2013-01-10 22:03:00,
2013-01-10 22:12:00,35.0,28.0,-100.00,NE,40,13.0,17.0,73,0.00,,,0.00,,2013-01-10 22:12:00,
2013-01-10 22:25:00,35.0,28.0,-100.00,NNE,30,14.0,18.0,74,0.00,,,0.00,,2013-01-10 22:25:00,
2013-01-10 22:33:00,35.0,28.0,-100.00,NE,50,15.0,17.0,77,0.00,,,0.00,,2013-01-10 22:33:00,
2013-01-10 22:43:00,35.0,28.0,-100.00,NE,50,18.0,22.0,77,0.00,,,0.00,,2013-01-10 22:43:00,
2013-01-10 23:02:00,34.0,30.0,-100.00,ENE,60,17.0,24.0,86,0.00,,,0.00,,2013-01-10 23:02:00,
2013-01-10 23:12:00,34.0,30.0,-100.00,NE,55,17.0,24.0,88,0.00,,,0.00,,2013-01-10 23:12:00,
2013-01-10 23:22:00,33.0,32.0,-100.00,ENE,65,16.0,21.0,93,0.00,,,0.00,,2013-01-10 23:22:00,
2013-01-10 23:33:00,33.0,32.0,-100.00,ENE,65,15.0,21.0,95,0.00,,,0.00,,2013-01-10 23:33:00,
2013-01-10 23:42:00,33.0,32.0,-100.00,ENE,65,17.0,24.0,97,0.00,,,0.00,,2013-01-10 23:42:00,
2013-01-10 23:53:00,33.0,32.0,-100.00,ENE,60,16.0,22.0,98,0.00,,,0.00,,2013-01-10 23:53:00,